Location: Kailua
(21.4020°N, 157.7390°W)
Time: 09:55:20
(UTC-10:00)

Cosmos 2297 Rocket - Visible Passes

Search period start: 04 August 2015 00:00
Search period end: 14 August 2015 00:00
Orbit: 838 x 845 km, 71.0° (Epoch: 02 August)

Date Brightness Start Highest point End Pass type
(mag) Time Alt. Az. Time Alt. Az. Time Alt. Az.
04 Aug 5.2 03:47:36 10° NNE 03:50:17 14° ENE 03:53:19 10° E visible
04 Aug 2.4 05:29:12 10° NNW 05:34:39 50° WSW 05:40:04 10° S visible
05 Aug 5.2 03:32:51 10° NE 03:35:11 13° ENE 03:37:54 10° E visible
05 Aug 2.3 05:14:06 10° NNW 05:19:36 54° WSW 05:25:04 10° S visible
06 Aug 5.2 03:18:09 10° NE 03:20:05 12° ENE 03:22:25 10° E visible
06 Aug 2.2 04:59:00 10° NNW 05:04:33 58° WSW 05:10:04 10° S visible
07 Aug 5.2 03:03:34 10° NE 03:04:59 11° ENE 03:06:50 10° E visible
07 Aug 2.1 04:43:55 10° NNW 04:49:30 62° WSW 04:55:03 10° S visible
08 Aug 5.2 02:49:16 10° NE 02:49:52 10° ENE 02:50:57 10° ENE visible
08 Aug 2.1 04:28:51 10° NNW 04:34:27 66° WSW 04:40:02 10° S visible
09 Aug 2.0 04:13:46 10° NNW 04:19:24 71° WSW 04:25:00 10° S visible
10 Aug 2.3 03:58:42 10° NNW 04:03:24 61° NW 04:03:24 61° NW visible
11 Aug 3.6 03:43:38 10° NNW 03:46:08 27° NNW 03:46:08 27° NNW visible
12 Aug 4.3 03:28:35 10° NNW 03:29:39 16° NNW 03:29:39 16° NNW visible
13 Aug 4.8 03:13:31 10° NNW 03:13:34 10° NNW 03:13:34 10° NNW visible
